Location: Edinburgh
(55.9500°N, 3.1600°W)
Time: 12:00:23
(UTC+00:00)

N. Korean satellite - Visible Passes

Search period start: 23 February 2019 00:00
Search period end: 05 March 2019 00:00
Orbit: 456 x 510 km, 97.2° (Epoch: 23 February)

Date Brightness Start Highest point End Pass type
(mag) Time Alt. Az. Time Alt. Az. Time Alt. Az.
23 Feb 7.3 06:26:52 10° NNE 06:30:19 57° E 06:33:43 10° S visible
23 Feb 10.1 18:45:01 10° WSW 18:47:00 14° W 18:49:00 10° NW visible
24 Feb 8.6 06:02:18 10° NNE 06:05:27 31° E 06:08:34 10° SSE visible
24 Feb 9.5 18:19:05 10° SSW 18:22:02 23° W 18:24:57 10° NW visible
25 Feb 9.7 05:38:00 10° NE 05:40:30 18° E 05:42:58 10° SE visible
26 Feb 10.3 05:14:36 10° ENE 05:15:28 11° E 05:16:21 10° E visible
27 Feb 7.6 06:21:19 10° NNE 06:24:42 49° E 06:28:02 10° S visible
27 Feb 10.1 18:39:09 10° SW 18:41:22 15° W 18:43:34 10° NW visible
28 Feb 8.9 05:56:46 10° NE 05:59:48 27° E 06:02:48 10° SSE visible
01 Mar 9.8 05:32:34 10° NE 05:34:50 16° E 05:37:05 10° SE visible
03 Mar 7.9 06:15:42 10° NNE 06:19:02 43° E 06:22:20 10° S visible
03 Mar 10.0 18:33:18 10° SW 18:35:41 17° W 18:38:04 10° NW visible
04 Mar 9.2 05:51:14 10° NE 05:54:07 24° E 05:57:00 10° SSE visible
